EW8665 Weather Reports


time (UTC)temp
C
wind
direction
speed
KPH
gust
KPH
rain 1hr
cm
rain 24hr
cm
rain mn
cm
humidity
%
barometer
mb
20260901132006 24 267 4.8 11.3 0.00 0.00 0.00 45 1023.0
20260901131504 24 256 6.4 12.9 0.00 0.00 0.00 45 1023.1
20260901131005 24 257 6.4 14.5 0.00 0.00 0.00 45 1023.0
20260901125505 25 241 6.4 17.7 0.00 0.00 0.00 45 1023.0
20260901125004 25 244 4.8 12.9 0.00 0.00 0.00 45 1023.0
20260901124505 24 246 8.0 12.9 0.00 0.00 0.00 45 1023.2
20260901123504 24 231 8.0 14.5 0.00 0.00 0.00 45 1023.2
20260901123005 24 208 8.0 14.5 0.00 0.00 0.00 46 1023.3
20260901122006 24 210 4.8 11.3 0.00 0.00 0.00 46 1023.3
20260901121505 23 219 4.8 11.3 0.00 0.00 0.00 46 1023.4
20260901121004 23 272 4.8 11.3 0.00 0.00 0.00 47 1023.2
20260901120505 23 275 4.8 11.3 0.00 0.00 0.00 46 1023.5
20260901120005 23 264 6.4 11.3 0.00 0.00 0.00 46 1023.4
20260901115504 23 255 4.8 11.3 0.00 0.00 0.00 46 1023.4
20260901115005 23 252 4.8 20.9 0.00 0.00 0.00 46 1023.4
20260901114505 23 249 9.7 20.9 0.00 0.00 0.00 46 1023.4
20260901114004 24 246 11.3 20.9 0.00 0.00 0.00 46 1023.5
20260901113504 24 229 9.7 20.9 0.00 0.00 0.00 46 1023.6
20260901113004 24 232 8.0 19.3 0.00 0.00 0.00 46 1023.4
20260901112504 24 240 4.8 9.7 0.00 0.00 0.00 47 1023.3
20260901112006 23 223 6.4 16.1 0.00 0.00 0.00 46 1023.7
20260901111504 24 218 6.4 16.1 0.00 0.00 0.00 46 1023.5
20260901110504 23 214 3.2 8.0 0.00 0.00 0.00 46 1023.4
20260901110005 23 223 3.2 6.4 0.00 0.00 0.00 46 1023.5
20260901105504 23 219 4.8 12.9 0.00 0.00 0.00 47 1023.5
20260901104504 23 231 4.8 9.7 0.00 0.00 0.00 47 1023.8
20260901103504 23 231 8.0 12.9 0.00 0.00 0.00 46 1023.8
20260901103005 23 226 6.4 12.9 0.00 0.00 0.00 47 1024.0
20260901102504 22 226 4.8 12.9 0.00 0.00 0.00 49 1023.9
20260901102004 22 208 3.2 11.3 0.00 0.00 0.00 50 1023.9
20260901101004 22 225 3.2 9.7 0.00 0.00 0.00 50 1024.1
20260901100504 22 212 4.8 9.7 0.00 0.00 0.00 49 1024.1
20260901100004 22 206 4.8 9.7 0.00 0.00 0.00 49 1024.1
20260901095506 22 209 4.8 9.7 0.00 0.00 0.00 49 1024.0
20260901095005 22 212 4.8 9.7 0.00 0.00 0.00 50 1024.1
20260901094505 22 215 4.8 9.7 0.00 0.00 0.00 50 1024.1
20260901094006 22 217 4.8 11.3 0.00 0.00 0.00 50 1024.1
20260901093505 22 226 4.8 11.3 0.00 0.00 0.00 50 1024.0
20260901093005 22 240 6.4 12.9 0.00 0.00 0.00 54 1024.2
20260901092004 21 258 4.8 9.7 0.00 0.00 0.00 56 1024.2
20260901091504 21 260 3.2 8.0 0.00 0.00 0.00 62 1023.8
20260901091004 21 263 4.8 8.0 0.00 0.00 0.00 62 1024.0
20260901090004 21 273 4.8 12.9 0.00 0.00 0.00 64 1024.0
20260901085505 21 274 4.8 12.9 0.00 0.00 0.00 64 1023.9
20260901085004 21 265 4.8 12.9 0.00 0.00 0.00 64 1023.9
20260901084004 21 266 8.0 12.9 0.00 0.00 0.00 64 1023.8
20260901083504 21 252 4.8 12.9 0.00 0.00 0.00 64 1023.9
20260901081505 20 262 4.8 9.7 0.00 0.00 0.00 65 1023.7
20260901080505 20 254 4.8 9.7 0.00 0.00 0.00 65 1023.3
20260901080004 20 241 3.2 9.7 0.00 0.00 0.00 66 1023.5
20260901075504 20 239 4.8 9.7 0.00 0.00 0.00 66 1023.5
20260901075005 20 238 4.8 9.7 0.00 0.00 0.00 67 1023.4
20260901074504 20 234 4.8 9.7 0.00 0.00 0.00 66 1023.4
20260901074004 20 234 3.2 4.8 0.00 0.00 0.00 67 1023.4
20260901073504 20 240 3.2 6.4 0.00 0.00 0.00 67 1023.6
20260901073005 20 255 3.2 6.4 0.00 0.00 0.00 67 1023.2
20260901072504 19 267 3.2 6.4 0.00 0.00 0.00 67 1023.3
20260901072005 19 269 3.2 6.4 0.00 0.00 0.00 68 1023.3
20260901071504 19 275 3.2 6.4 0.00 0.00 0.00 69 1023.4
20260901071004 18 334 3.2 8.0 0.00 0.00 0.00 70 1023.2
20260901065005 17 61 1.6 3.2 0.00 0.00 0.00 75 1023.5
20260901064504 17 49 1.6 3.2 0.00 0.00 0.00 75 1023.4
20260901064004 17 53 1.6 3.2 0.00 0.00 0.00 76 1023.3
20260901063504 17 49 1.6 4.8 0.00 0.00 0.00 80 1023.3
20260901063004 17 49 3.2 4.8 0.00 0.00 0.00 81 1023.4
20260901062505 16 57 3.2 4.8 0.00 0.00 0.00 81 1023.3
20260901062005 16 63 3.2 6.4 0.00 0.00 0.00 81 1023.1
20260901061504 16 66 3.2 8.0 0.00 0.00 0.00 81 1023.0
20260901061005 16 66 4.8 8.0 0.00 0.00 0.00 81 1023.2
20260901060505 16 74 4.8 8.0 0.00 0.00 0.00 81 1023.2
20260901060004 16 79 4.8 11.3 0.00 0.00 0.00 81 1023.1
20260901055505 16 77 4.8 11.3 0.00 0.00 0.00 81 1023.1
20260901054505 16 80 3.2 4.8 0.00 0.00 0.00 81 1023.0
20260901053504 16 73 3.2 6.4 0.00 0.00 0.00 81 1022.9
20260901052005 16 48 3.2 4.8 0.00 0.00 0.00 81 1022.9
20260901051504 16 45 3.2 6.4 0.00 0.00 0.00 81 1022.9
20260901051005 15 44 3.2 6.4 0.00 0.00 0.00 81 1022.8
20260901050505 15 39 3.2 4.8 0.00 0.00 0.00 81 1022.8
20260901050004 15 33 3.2 4.8 0.00 0.00 0.00 81 1023.1
20260901045504 16 41 1.6 4.8 0.00 0.00 0.00 81 1022.7
20260901045005 16 52 3.2 6.4 0.00 0.00 0.00 81 1023.0
20260901044507 16 50 3.2 6.4 0.00 0.00 0.00 81 1022.8
20260901044004 16 62 3.2 4.8 0.00 0.00 0.00 81 1023.0
20260901043504 16 65 1.6 4.8 0.00 0.00 0.00 81 1022.7
20260901043004 16 75 1.6 3.2 0.00 0.00 0.00 81 1022.6
20260901042504 16 71 1.6 4.8 0.00 0.00 0.00 81 1022.8
20260901042004 16 67 3.2 4.8 0.00 0.00 0.00 81 1022.8
20260901041004 16 58 1.6 6.4 0.00 0.00 0.00 80 1022.6
20260901040004 16 77 3.2 6.4 0.00 0.00 0.00 80 1022.6
20260901035005 16 93 1.6 3.2 0.00 0.00 0.00 80 1022.5
20260901034505 16 92 1.6 3.2 0.00 0.00 0.00 80 1022.5
20260901034004 16 113 1.6 3.2 0.00 0.00 0.00 80 1022.7
20260901033004 16 105 0.0 3.2 0.00 0.00 0.00 80 1022.5
20260901032505 16 109 0.0 3.2 0.00 0.00 0.00 81 1022.6
20260901031505 16 109 1.6 9.7 0.00 0.00 0.00 80 1022.6
20260901031004 16 100 1.6 3.2 0.00 0.00 0.00 80 1022.5
20260901025504 16 99 1.6 3.2 0.00 0.00 0.00 80 1022.6
20260901025004 16 92 1.6 3.2 0.00 0.00 0.00 80 1022.6
20260901024504 16 88 1.6 3.2 0.00 0.00 0.00 80 1022.7
20260901024005 16 90 1.6 3.2 0.00 0.00 0.00 79 1022.8
20260901023504 16 85 1.6 3.2 0.00 0.00 0.00 79 1022.5
20260901023006 16 80 1.6 3.2 0.00 0.00 0.00 79 1022.7
20260901022504 16 80 1.6 3.2 0.00 0.00 0.00 79 1022.7
20260901022004 16 70 1.6 3.2 0.00 0.00 0.00 79 1022.7
20260901021504 16 66 1.6 3.2 0.00 0.00 0.00 78 1022.6
20260901021004 16 73 1.6 3.2 0.00 0.00 0.00 77 1022.6
20260901020506 16 83 1.6 3.2 0.00 0.00 0.00 77 1022.7
20260901020004 16 98 1.6 4.8 0.00 0.00 0.00 77 1022.8
20260901015004 17 128 1.6 3.2 0.00 0.00 0.00 75 1022.7
20260901014004 17 167 1.6 3.2 0.00 0.00 0.00 72 1022.6
20260901013504 17 188 1.6 3.2 0.00 0.00 0.00 72 1022.5
20260901013004 17 182 1.6 8.0 0.00 0.00 0.00 72 1022.6
20260901012504 17 189 3.2 8.0 0.00 0.00 0.00 72 1022.6
20260901012005 17 158 1.6 6.4 0.00 0.00 0.00 75 1022.6
20260901011504 17 111 1.6 3.2 0.00 0.00 0.00 72 1022.4
20260901011004 17 59 1.6 3.2 0.00 0.00 0.00 72 1022.3
20260901010504 17 70 0.0 3.2 0.00 0.00 0.00 72 1022.5
20260901010004 17 60 0.0 3.2 0.00 0.00 0.00 72 1022.5
20260901005505 17 43 0.0 3.2 0.00 0.00 0.00 72 1022.3
20260901005005 17 29 1.6 3.2 0.00 0.00 0.00 71 1022.4
20260901004504 17 36 1.6 3.2 0.00 0.00 0.00 70 1022.5
20260901003505 17 43 3.2 6.4 0.00 0.00 0.00 70 1022.4
20260901003005 17 35 3.2 6.4 0.00 0.00 0.00 69 1022.4
20260901002504 17 37 3.2 6.4 0.00 0.00 0.00 69 1022.3
20260901002004 17 42 3.2 6.4 0.00 0.00 0.00 70 1022.6
20260901001504 17 38 4.8 6.4 0.00 0.00 0.00 70 1022.5
20260901001004 17 32 4.8 6.4 0.00 0.00 0.00 70 1022.4
20260901000004 17 50 3.2 8.0 0.00 0.00 0.00 73 1022.6
20260831235505 17 55 3.2 8.0 0.00 0.00 0.00 73 1022.6
20260831235004 17 53 3.2 4.8 0.00 0.00 0.00 73 1022.5
20260831234504 17 48 3.2 4.8 0.00 0.00 0.00 73 1022.6
20260831234004 17 49 4.8 8.0 0.00 0.00 0.00 72 1022.7
20260831233504 17 36 4.8 8.0 0.00 0.03 0.00 72 1022.5
20260831233005 17 31 4.8 6.4 0.00 0.03 0.00 72 1022.4
20260831232504 17 28 4.8 6.4 0.00 0.03 0.00 72 1022.5
20260831232004 17 29 3.2 6.4 0.00 0.05 0.00 69 1022.5
20260831231505 17 26 3.2 6.4 0.00 0.05 0.00 69 1022.5
20260831231004 17 24 3.2 6.4 0.00 0.08 0.00 69 1022.5
20260831230504 17 20 3.2 6.4 0.00 0.08 0.00 69 1022.6
20260831230004 17 19 3.2 6.4 0.00 0.08 0.00 72 1022.5
20260831225505 17 21 3.2 6.4 0.00 0.08 0.00 72 1022.5
20260831225003 17 25 4.8 8.0 0.00 0.08 0.00 72 1022.6
20260831224504 17 30 3.2 8.0 0.00 0.08 0.00 72 1022.5
20260831224004 17 25 4.8 8.0 0.00 0.08 0.00 72 1022.6
20260831223504 16 33 4.8 9.7 0.00 0.08 0.00 73 1022.6
20260831222504 16 33 4.8 8.0 0.00 0.08 0.00 73 1022.8
20260831222005 16 29 4.8 8.0 0.00 0.08 0.00 73 1023.0
20260831221504 16 36 4.8 8.0 0.00 0.08 0.00 73 1022.8
20260831221004 16 49 4.8 8.0 0.00 0.18 0.00 73 1023.0
20260831220504 16 49 4.8 8.0 0.00 0.25 0.00 73 1022.9
20260831220004 16 53 4.8 8.0 0.00 0.38 0.00 73 1023.0
20260831215504 16 54 4.8 9.7 0.00 0.46 0.43 73 1023.0
20260831215005 16 59 4.8 9.7 0.00 0.46 0.43 73 1022.9
20260831214506 16 48 4.8 9.7 0.00 0.46 0.43 73 1023.0
20260831214004 16 43 4.8 8.0 0.00 0.46 0.43 73 1023.0
20260831213504 16 43 4.8 8.0 0.00 0.46 0.43 73 1023.1
20260831212504 17 37 4.8 8.0 0.00 0.46 0.43 73 1023.1
20260831212004 17 41 4.8 11.3 0.00 0.46 0.43 73 1023.1
20260831211004 17 41 4.8 11.3 0.00 0.46 0.43 73 1023.0
20260831210505 17 59 3.2 9.7 0.00 0.46 0.43 73 1022.8
20260831210004 17 71 3.2 8.0 0.00 0.46 0.43 70 1022.9
20260831205004 17 73 4.8 8.0 0.00 0.46 0.43 69 1022.6
20260831204504 17 81 6.4 11.3 0.00 0.46 0.43 69 1022.7
20260831204004 17 84 6.4 11.3 0.00 0.46 0.43 69 1022.8
20260831203504 17 72 4.8 11.3 0.00 0.46 0.43 69 1022.6
20260831203004 17 60 4.8 8.0 0.00 0.46 0.43 69 1022.7
20260831202503 17 69 4.8 8.0 0.00 0.46 0.43 68 1022.7
20260831201504 18 50 4.8 8.0 0.00 0.46 0.43 67 1022.5
20260831201005 18 43 3.2 6.4 0.00 0.46 0.43 67 1022.6
20260831200506 18 38 3.2 6.4 0.00 0.46 0.43 66 1022.4
20260831200004 18 48 4.8 8.0 0.00 0.46 0.43 66 1022.3
20260831195504 18 44 4.8 8.0 0.00 0.46 0.43 65 1022.3
20260831195004 18 40 3.2 6.4 0.00 0.46 0.43 65 1022.2
20260831194504 19 40 1.6 6.4 0.00 0.46 0.43 64 1022.1
20260831194003 19 20 1.6 3.2 0.00 0.46 0.43 63 1021.9
20260831193504 19 256 1.6 4.8 0.00 0.46 0.43 63 1021.9
20260831193003 20 258 1.6 4.8 0.00 0.46 0.43 63 1021.9
20260831192504 20 243 1.6 6.4 0.00 0.46 0.43 62 1021.9
20260831191005 21 237 4.8 12.9 0.00 0.46 0.43 57 1021.9
20260831190506 21 236 4.8 12.9 0.00 0.46 0.43 57 1021.9
20260831190004 21 227 6.4 14.5 0.00 0.46 0.43 57 1021.9
20260831185004 20 91 6.4 12.9 0.00 0.46 0.43 60 1021.8
20260831184504 20 75 1.6 9.7 0.00 0.46 0.43 63 1021.9
20260831184004 19 64 1.6 4.8 0.00 0.46 0.43 64 1021.5
20260831183004 19 47 4.8 8.0 0.00 0.46 0.43 63 1021.3
20260831182504 20 47 4.8 8.0 0.00 0.46 0.43 63 1021.3
20260831182004 20 46 4.8 8.0 0.00 0.46 0.43 63 1021.1
20260831181504 20 39 4.8 8.0 0.00 0.46 0.43 63 1021.2
20260831181004 20 28 3.2 8.0 0.00 0.46 0.43 61 1021.0
20260831180506 20 326 3.2 6.4 0.00 0.46 0.43 59 1020.9
20260831175506 21 229 0.0 3.2 0.00 0.46 0.43 57 1020.9
20260831175005 21 234 1.6 9.7 0.00 0.46 0.43 57 1020.8
20260831174506 21 228 4.8 9.7 0.00 0.46 0.43 55 1020.7
20260831174005 22 229 6.4 12.9 0.00 0.46 0.43 50 1020.6
20260831173505 22 229 6.4 14.5 0.00 0.46 0.43 50 1020.8
20260831172505 22 233 8.0 16.1 0.00 0.46 0.43 49 1020.7
20260831172005 22 231 8.0 16.1 0.00 0.46 0.43 49 1020.6
20260831171505 23 240 6.4 16.1 0.00 0.46 0.43 49 1020.7
20260831171006 23 240 8.0 16.1 0.00 0.46 0.43 48 1020.6
20260831170505 23 250 6.4 16.1 0.00 0.46 0.43 48 1020.8
20260831165505 23 246 8.0 16.1 0.00 0.46 0.43 48 1020.9
20260831163006 24 238 9.7 16.1 0.00 0.46 0.43 46 1021.0
20260831162006 24 241 12.9 27.4 0.00 0.46 0.43 45 1021.0
20260831161005 24 248 9.7 27.4 0.00 0.46 0.43 45 1020.9
20260831160507 24 224 9.7 27.4 0.00 0.46 0.43 45 1020.8
20260831160005 24 224 9.7 17.7 0.00 0.46 0.43 45 1020.7
20260831155005 24 220 14.5 33.8 0.00 0.46 0.43 45 1020.8
20260831154505 23 212 19.3 33.8 0.00 0.46 0.43 45 1020.7
20260831153506 24 232 16.1 33.8 0.00 0.46 0.43 49 1020.6
20260831153006 24 235 16.1 27.4 0.00 0.46 0.43 49 1020.4
20260831152506 24 239 16.1 27.4 0.00 0.46 0.43 49 1020.5
20260831152006 24 242 16.1 27.4 0.00 0.46 0.43 49 1020.4
20260831151506 24 250 16.1 29.0 0.00 0.46 0.43 49 1020.4
20260831151006 24 243 14.5 29.0 0.00 0.46 0.43 50 1020.5
20260831145506 24 246 16.1 32.2 0.00 0.46 0.43 50 1020.5
20260831145006 24 248 12.9 20.9 0.00 0.46 0.43 51 1020.5
20260831144505 24 227 14.5 30.6 0.00 0.46 0.43 50 1020.4
20260831143505 24 256 12.9 27.4 0.00 0.46 0.43 51 1020.1
20260831141505 24 267 16.1 37.0 0.00 0.43 0.43 51 1020.1
20260831141005 23 274 14.5 25.7 0.00 0.43 0.43 51 1020.1
20260831140505 23 277 14.5 27.4 0.00 0.43 0.43 51 1019.9
20260831140005 23 281 16.1 27.4 0.00 0.43 0.43 51 1020.0
20260831135505 23 276 16.1 27.4 0.00 0.43 0.43 52 1020.0
20260831135006 23 277 16.1 29.0 0.00 0.43 0.43 50 1020.0
20260831134005 24 260 12.9 27.4 0.00 0.43 0.43 50 1020.1
20260831133506 24 250 14.5 27.4 0.00 0.43 0.43 50 1020.1
20260831132505 24 250 12.9 29.0 0.00 0.43 0.43 49 1019.8